Location: Unspecified
(43.6478°N, 0.0000°E)
Time: 10:11:22
(UTC+00:00)

Cosmos 2360 - Visible Passes

Search period start: 04 April 2026 00:00
Search period end: 14 April 2026 00:00
Orbit: 848 x 854 km, 70.7° (Epoch: 29 March)

Date Brightness Start Highest point End Pass type
(mag) Time Alt. Az. Time Alt. Az. Time Alt. Az.
4 Apr 6.9 00:48:07 10° N 00:50:58 14° NE 00:53:49 10° ENE visible
4 Apr 4.4 02:30:41 10° NNW 02:36:22 69° ENE 02:37:02 63° ESE visible
4 Apr 5.7 04:16:19 10° WNW 04:18:54 17° W 04:18:54 17° W visible
4 Apr 7.0 19:12:27 10° WNW 19:15:39 15° NW 19:18:52 10° N visible
5 Apr 6.9 00:35:49 10° N 00:38:41 14° NE 00:41:32 10° ENE visible
5 Apr 4.5 02:18:23 10° NNW 02:23:28 63° NNE 02:23:28 63° NNE visible
5 Apr 6.0 04:04:02 10° WNW 04:05:23 14° WNW 04:05:23 14° WNW visible
5 Apr 7.0 19:00:10 10° WNW 19:03:23 15° NW 19:06:35 10° N visible
6 Apr 6.8 00:23:33 10° N 00:26:24 14° NE 00:28:29 12° ENE visible
6 Apr 4.9 02:06:06 10° NNW 02:10:25 50° N 02:10:25 50° N visible
6 Apr 6.2 03:51:45 10° WNW 03:52:21 12° WNW 03:52:21 12° WNW visible
7 Apr 6.7 00:11:15 10° N 00:14:07 14° NE 00:15:41 13° ENE visible
7 Apr 5.1 01:53:49 10° NNW 01:57:38 42° N 01:57:38 42° N visible
7 Apr 6.3 03:39:28 10° WNW 03:39:35 10° WNW 03:39:35 10° WNW visible
7 Apr 6.7 23:58:58 10° N 00:01:50 14° NE 00:03:03 13° NE visible
8 Apr 5.4 01:41:32 10° NNW 01:45:00 38° N 01:45:00 38° N visible
8 Apr 6.7 23:46:41 10° N 23:49:33 14° NE 23:50:33 13° NE visible
9 Apr 5.5 01:29:15 10° NNW 01:32:31 35° N 01:32:31 35° N visible
9 Apr 6.6 23:34:23 10° N 23:37:16 14° NE 23:38:07 13° NE visible
10 Apr 5.6 01:16:57 10° NNW 01:20:05 33° NNW 01:20:05 33° NNW visible
10 Apr 6.6 23:22:07 10° N 23:24:59 14° NE 23:25:45 14° NE visible
11 Apr 5.6 01:04:41 10° NNW 01:07:44 32° NNW 01:07:44 32° NNW visible
11 Apr 6.6 23:09:49 10° N 23:12:42 14° NE 23:13:26 14° NE visible
12 Apr 5.7 00:52:24 10° NNW 00:55:25 32° NNW 00:55:25 32° NNW visible
12 Apr 6.6 22:57:32 10° N 23:00:25 14° NE 23:01:11 14° NE visible
13 Apr 5.7 00:40:07 10° NNW 00:43:09 32° NNW 00:43:09 32° NNW visible
13 Apr 6.5 22:45:16 10° N 22:48:08 14° NE 22:48:56 14° NE visible
